This is the latest recevied weather packets stored in our database for station/object WB0OCV. If no packets are shown the sender has not sent any weather packets the latest 10 day(s).
| Time | Temp. | Humidity | Pressure | Rain* | Wind** | Luminosity | Snow |
|---|---|---|---|---|---|---|---|
| 1777750838 | 12.22° C | 71% | 1013.7 hPa | 0 mm | - | 149 W/m² | - |
| 1777750536 | 12.22° C | 71% | 1013.7 hPa | 0 mm | - | 157 W/m² | - |
| 1777750232 | 12.78° C | 72% | 1013.9 hPa | 0 mm | - | 137 W/m² | - |
| 1777749928 | 12.78° C | 71% | 1014 hPa | 0 mm | - | 144 W/m² | - |
| 1777749626 | 12.78° C | 72% | 1013.7 hPa | 0 mm | - | 151 W/m² | - |
| 1777749322 | 12.78° C | 70% | 1013.8 hPa | 0 mm | - | 170 W/m² | - |
| 1777749020 | 12.78° C | 70% | 1013.9 hPa | 0 mm | - | 179 W/m² | - |
| 1777748717 | 12.78° C | 70% | 1013.9 hPa | 0 mm | - | 174 W/m² | - |
| 1777748414 | 13.33° C | 68% | 1014.1 hPa | 0 mm | - | 158 W/m² | - |
| 1777748109 | 13.33° C | 69% | 1013.9 hPa | 0 mm | - | 216 W/m² | - |
| 1777747806 | 12.78° C | 70% | 1014.1 hPa | 0 mm | - | 189 W/m² | - |
| 1777747502 | 12.78° C | 70% | 1014.3 hPa | 0 mm | - | 185 W/m² | - |
| 1777747198 | 12.78° C | 69% | 1014.5 hPa | 0 mm | - | 186 W/m² | - |
| 1777746895 | 12.78° C | 69% | 1014.5 hPa | 0 mm | - | 188 W/m² | - |
| 1777746589 | 13.33° C | 70% | 1014.5 hPa | 0 mm | - | 203 W/m² | - |
| 1777746286 | 12.78° C | 71% | 1014.5 hPa | 0 mm | - | 187 W/m² | - |
| 1777745982 | 12.78° C | 71% | 1014.3 hPa | 0 mm | - | 189 W/m² | - |
| 1777745680 | 12.78° C | 71% | 1014.7 hPa | 0 mm | - | 181 W/m² | - |
| 1777745379 | 13.33° C | 71% | 1014.5 hPa | 0 mm | - | 186 W/m² | - |
| 1777745076 | 13.33° C | 72% | 1014.6 hPa | 0 mm | - | 197 W/m² | - |
| 1777744772 | 13.33° C | 71% | 1014.7 hPa | 0 mm | - | 210 W/m² | - |
| 1777744466 | 13.89° C | 72% | 1014.6 hPa | 0 mm | - | 234 W/m² | - |
| 1777744163 | 13.33° C | 72% | 1014.6 hPa | 0 mm | - | 191 W/m² | - |
| 1777743860 | 13.33° C | 69% | 1014.6 hPa | 0 mm | - | 191 W/m² | - |
| 1777743556 | 13.89° C | 66% | 1014.7 hPa | 0 mm | - | 215 W/m² | - |
* Rain latest hour (hover to see other rain measurements)
** Current wind speed in m/s (hover to see current wind gust speed)